Location: Paddlesworth
(51.1000°N, 1.1333°E)
Time: 08:28:51
(UTC+00:00)

Cosmos 1900 - Pass Details

Date: 11 May 2021
Orbit: 689 x 733 km, 66.1° (Epoch: 20 June)

Event Time Altitude Azimuth Distance (km) Brightness Sun altitude
Exits shadow 23:09:19 26° 223° (SW) 1,399 5.5 -20.1°
Maximum altitude 23:12:12 83° 309° (NW) 736 4.4 -20.2°
Drops below altitude 10° 23:17:16 10° 38° (NE) 2,210 7.5 -20.4°
Sets 23:19:37 0° 39° (NE) 3,126 8.3 -20.4°
